Time,TemperatureF,DewpointF,PressureIn,WindDirection,WindDirectionDegrees,WindSpeedMPH,WindSpeedGustMPH,Humidity,HourlyPrecipIn,Conditions,Clouds,dailyrainin,SoftwareType,DateUTC
2013-03-01 00:00:00,31.8,23.8,29.89,ENE,73,1.0,1.0,72,0.00,,,0.00,Wunderground v.1.15,2013-03-01 05:00:00,
2013-03-01 00:05:00,31.8,23.8,29.89,SE,136,0.0,1.0,72,0.00,,,0.00,Wunderground v.1.15,2013-03-01 05:05:00,
2013-03-01 00:10:00,31.8,23.8,29.90,NW,321,1.0,1.0,72,0.00,,,0.00,Wunderground v.1.15,2013-03-01 05:10:00,
2013-03-01 00:15:00,31.7,23.7,29.89,East,83,1.0,4.0,72,0.00,,,0.00,Wunderground v.1.15,2013-03-01 05:15:00,
2013-03-01 00:20:00,31.7,23.4,29.90,WSW,249,1.0,2.0,71,0.00,,,0.00,Wunderground v.1.15,2013-03-01 05:20:00,
2013-03-01 00:30:00,31.7,23.7,29.89,NNW,331,1.0,1.0,72,0.00,,,0.00,Wunderground v.1.15,2013-03-01 05:30:00,
2013-03-01 00:35:00,31.7,23.7,29.90,SE,137,0.0,2.0,72,0.00,,,0.00,Wunderground v.1.15,2013-03-01 05:35:00,
2013-03-01 00:40:00,31.7,23.4,29.89,ESE,118,1.0,1.0,71,0.00,,,0.00,Wunderground v.1.15,2013-03-01 05:40:00,
2013-03-01 00:45:00,31.7,23.4,29.89,SSE,164,1.0,1.0,71,0.00,,,0.00,Wunderground v.1.15,2013-03-01 05:45:00,
2013-03-01 00:50:00,31.7,23.7,29.90,WSW,249,1.0,1.0,72,0.00,,,0.00,Wunderground v.1.15,2013-03-01 05:50:00,
2013-03-01 00:55:00,31.7,23.4,29.90,NNW,331,1.0,1.0,71,0.00,,,0.00,Wunderground v.1.15,2013-03-01 05:55:00,
2013-03-01 01:05:00,31.7,23.4,29.89,ESE,114,1.0,6.0,71,0.00,,,0.00,Wunderground v.1.15,2013-03-01 06:05:00,
2013-03-01 01:10:00,31.6,23.3,29.89,East,93,2.0,2.0,71,0.00,,,0.00,Wunderground v.1.15,2013-03-01 06:10:00,
2013-03-01 01:15:00,31.6,23.3,29.89,ESE,111,2.0,4.0,71,0.00,,,0.00,Wunderground v.1.15,2013-03-01 06:15:00,
2013-03-01 01:20:00,31.6,23.3,29.89,SSE,161,1.0,1.0,71,0.00,,,0.00,Wunderground v.1.15,2013-03-01 06:20:00,
2013-03-01 01:25:00,31.6,23.3,29.89,SW,214,0.0,5.0,71,0.00,,,0.00,Wunderground v.1.15,2013-03-01 06:25:00,
2013-03-01 01:35:00,31.6,22.9,29.88,SSW,203,0.0,5.0,70,0.00,,,0.00,Wunderground v.1.15,2013-03-01 06:35:00,
2013-03-01 01:40:00,31.5,23.2,29.89,East,94,1.0,5.0,71,0.00,,,0.00,Wunderground v.1.15,2013-03-01 06:40:00,
2013-03-01 01:45:00,31.5,22.8,29.89,ESE,112,2.0,5.0,70,0.00,,,0.00,Wunderground v.1.15,2013-03-01 06:45:00,
2013-03-01 01:50:00,31.5,22.8,29.88,SE,142,1.0,1.0,70,0.00,,,0.00,Wunderground v.1.15,2013-03-01 06:50:00,
2013-03-01 01:55:00,31.5,22.8,29.89,SE,138,1.0,5.0,70,0.00,,,0.00,Wunderground v.1.15,2013-03-01 06:55:00,
2013-03-01 02:00:00,31.5,22.8,29.89,SSW,193,0.0,5.0,70,0.00,,,0.00,Wunderground v.1.15,2013-03-01 07:00:00,
2013-03-01 02:10:00,31.4,22.4,29.88,NW,307,1.0,5.0,69,0.00,,,0.00,Wunderground v.1.15,2013-03-01 07:10:00,
2013-03-01 02:15:00,31.4,22.4,29.89,SW,234,1.0,5.0,69,0.00,,,0.00,Wunderground v.1.15,2013-03-01 07:15:00,
2013-03-01 02:20:00,31.4,22.4,29.89,WSW,237,1.0,1.0,69,0.00,,,0.00,Wunderground v.1.15,2013-03-01 07:20:00,
2013-03-01 02:25:00,31.3,22.3,29.88,East,94,1.0,5.0,69,0.00,,,0.00,Wunderground v.1.15,2013-03-01 07:25:00,
2013-03-01 02:30:00,31.3,22.0,29.88,SSE,158,1.0,1.0,68,0.00,,,0.00,Wunderground v.1.15,2013-03-01 07:30:00,
2013-03-01 02:35:00,31.2,21.9,29.88,SE,139,1.0,5.0,68,0.00,,,0.00,Wunderground v.1.15,2013-03-01 07:35:00,
2013-03-01 02:40:00,31.2,21.9,29.88,ESE,121,1.0,7.0,68,0.00,,,0.00,Wunderground v.1.15,2013-03-01 07:40:00,
2013-03-01 02:45:00,31.2,22.2,29.88,ESE,113,1.0,7.0,69,0.00,,,0.00,Wunderground v.1.15,2013-03-01 07:45:00,
2013-03-01 02:50:00,31.2,21.9,29.88,SW,228,2.0,2.0,68,0.00,,,0.00,Wunderground v.1.15,2013-03-01 07:50:00,
2013-03-01 02:55:00,31.1,21.8,29.88,SSW,199,1.0,5.0,68,0.00,,,0.00,Wunderground v.1.15,2013-03-01 07:55:00,
2013-03-01 03:05:00,31.2,21.9,29.88,SE,144,0.0,1.0,68,0.00,,,0.00,Wunderground v.1.15,2013-03-01 08:05:00,
2013-03-01 03:10:00,31.2,21.5,29.88,SE,124,0.0,0.0,67,0.00,,,0.00,Wunderground v.1.15,2013-03-01 08:10:00,
2013-03-01 03:15:00,31.2,21.9,29.87,ESE,119,0.0,0.0,68,0.00,,,0.00,Wunderground v.1.15,2013-03-01 08:15:00,
2013-03-01 03:20:00,31.2,21.9,29.87,SE,125,0.0,4.0,68,0.00,,,0.00,Wunderground v.1.15,2013-03-01 08:20:00,
2013-03-01 03:25:00,31.2,21.9,29.87,SSE,165,1.0,4.0,68,0.00,,,0.00,Wunderground v.1.15,2013-03-01 08:25:00,
2013-03-01 03:30:00,31.1,21.8,29.87,SSW,192,1.0,1.0,68,0.00,,,0.00,Wunderground v.1.15,2013-03-01 08:30:00,
2013-03-01 03:35:00,31.1,21.8,29.87,SSW,192,0.0,1.0,68,0.00,,,0.00,Wunderground v.1.15,2013-03-01 08:35:00,
2013-03-01 03:45:00,31.2,21.5,29.87,West,260,1.0,1.0,67,0.00,,,0.00,Wunderground v.1.15,2013-03-01 08:45:00,
2013-03-01 03:50:00,31.2,21.5,29.86,WSW,244,0.0,0.0,67,0.00,,,0.00,Wunderground v.1.15,2013-03-01 08:50:00,
2013-03-01 03:55:00,31.2,21.5,29.87,SE,136,0.0,5.0,67,0.00,,,0.00,Wunderground v.1.15,2013-03-01 08:55:00,
2013-03-01 04:00:00,31.2,21.5,29.87,WSW,238,0.0,4.0,67,0.00,,,0.00,Wunderground v.1.15,2013-03-01 09:00:00,
2013-03-01 04:05:00,31.1,21.8,29.87,East,98,1.0,4.0,68,0.00,,,0.00,Wunderground v.1.15,2013-03-01 09:05:00,
2013-03-01 04:10:00,31.1,21.4,29.87,SW,217,1.0,1.0,67,0.00,,,0.00,Wunderground v.1.15,2013-03-01 09:10:00,
2013-03-01 04:20:00,31.1,21.4,29.87,ESE,107,0.0,4.0,67,0.00,,,0.00,Wunderground v.1.15,2013-03-01 09:20:00,
2013-03-01 04:25:00,31.1,21.1,29.87,SE,133,1.0,4.0,66,0.00,,,0.00,Wunderground v.1.15,2013-03-01 09:25:00,
2013-03-01 04:30:00,31.1,21.1,29.88,NE,49,1.0,1.0,66,0.00,,,0.00,Wunderground v.1.15,2013-03-01 09:30:00,
2013-03-01 04:35:00,31.1,21.1,29.88,SW,220,1.0,4.0,66,0.00,,,0.00,Wunderground v.1.15,2013-03-01 09:35:00,
2013-03-01 04:40:00,31.1,21.4,29.88,East,80,1.0,4.0,67,0.00,,,0.00,Wunderground v.1.15,2013-03-01 09:40:00,
2013-03-01 04:50:00,31.1,21.1,29.89,NE,55,2.0,2.0,66,0.00,,,0.00,Wunderground v.1.15,2013-03-01 09:50:00,
2013-03-01 04:55:00,31.1,21.8,29.89,NNE,33,1.0,4.0,68,0.00,,,0.00,Wunderground v.1.15,2013-03-01 09:55:00,
2013-03-01 05:00:00,31.1,21.8,29.89,ESE,107,0.0,4.0,68,0.00,,,0.00,Wunderground v.1.15,2013-03-01 10:00:00,
2013-03-01 05:05:00,31.1,21.4,29.89,SSE,164,1.0,4.0,67,0.00,,,0.00,Wunderground v.1.15,2013-03-01 10:05:00,
2013-03-01 05:10:00,31.2,21.5,29.89,East,101,1.0,4.0,67,0.00,,,0.00,Wunderground v.1.15,2013-03-01 10:10:00,
2013-03-01 05:15:00,31.2,21.5,29.89,SE,125,0.0,4.0,67,0.00,,,0.00,Wunderground v.1.15,2013-03-01 10:15:00,
2013-03-01 05:25:00,31.3,21.6,29.90,East,100,1.0,4.0,67,0.00,,,0.00,Wunderground v.1.15,2013-03-01 10:25:00,
2013-03-01 05:30:00,31.3,21.3,29.90,NE,49,1.0,1.0,66,0.00,,,0.00,Wunderground v.1.15,2013-03-01 10:30:00,
2013-03-01 05:35:00,31.2,21.5,29.90,NE,51,0.0,4.0,67,0.00,,,0.00,Wunderground v.1.15,2013-03-01 10:35:00,
2013-03-01 05:40:00,31.3,21.6,29.90,SW,217,0.0,4.0,67,0.00,,,0.00,Wunderground v.1.15,2013-03-01 10:40:00,
2013-03-01 05:45:00,31.3,21.3,29.90,SW,217,0.0,4.0,66,0.00,,,0.00,Wunderground v.1.15,2013-03-01 10:45:00,
2013-03-01 05:55:00,31.3,21.3,29.90,South,182,1.0,4.0,66,0.00,,,0.00,Wunderground v.1.15,2013-03-01 10:55:00,
2013-03-01 06:00:00,31.3,21.3,29.90,East,81,0.0,0.0,66,0.00,,,0.00,Wunderground v.1.15,2013-03-01 11:00:00,
2013-03-01 06:10:00,31.3,20.9,29.90,ENE,65,0.0,0.0,65,0.00,,,0.00,Wunderground v.1.15,2013-03-01 11:10:00,
2013-03-01 06:15:00,31.3,21.3,29.91,South,174,0.0,0.0,66,0.00,,,0.00,Wunderground v.1.15,2013-03-01 11:15:00,
2013-03-01 06:20:00,31.3,21.3,29.91,SSW,192,0.0,0.0,66,0.00,,,0.00,Wunderground v.1.15,2013-03-01 11:20:00,
2013-03-01 06:30:00,31.4,21.0,29.90,SSW,192,0.0,0.0,65,0.00,,,0.00,Wunderground v.1.15,2013-03-01 11:30:00,
2013-03-01 06:35:00,31.4,21.3,29.90,SSW,192,0.0,0.0,66,0.00,,,0.00,Wunderground v.1.15,2013-03-01 11:35:00,
2013-03-01 06:40:00,31.4,21.0,29.90,SSE,152,0.0,1.0,65,0.00,,,0.00,Wunderground v.1.15,2013-03-01 11:40:00,
2013-03-01 06:45:00,31.4,21.0,29.90,South,175,0.0,1.0,65,0.00,,,0.00,Wunderground v.1.15,2013-03-01 11:45:00,
2013-03-01 06:50:00,31.4,21.3,29.90,SE,144,0.0,0.0,66,0.00,,,0.00,Wunderground v.1.15,2013-03-01 11:50:00,
2013-03-01 07:00:00,31.4,21.3,29.90,WNW,290,0.0,1.0,66,0.00,,,0.00,Wunderground v.1.15,2013-03-01 12:00:00,
2013-03-01 07:05:00,31.4,21.3,29.90,SE,126,0.0,1.0,66,0.00,,,0.00,Wunderground v.1.15,2013-03-01 12:05:00,
2013-03-01 07:10:00,31.4,21.0,29.90,South,179,0.0,1.0,65,0.00,,,0.00,Wunderground v.1.15,2013-03-01 12:10:00,
2013-03-01 07:15:00,31.4,21.3,29.90,South,179,0.0,1.0,66,0.00,,,0.00,Wunderground v.1.15,2013-03-01 12:15:00,
2013-03-01 07:20:00,31.4,21.7,29.90,ENE,69,0.0,1.0,67,0.00,,,0.00,Wunderground v.1.15,2013-03-01 12:20:00,
2013-03-01 07:25:00,31.4,21.7,29.90,ENE,66,0.0,1.0,67,0.00,,,0.00,Wunderground v.1.15,2013-03-01 12:25:00,
2013-03-01 07:35:00,31.5,21.4,29.91,ENE,65,0.0,1.0,66,0.00,,,0.00,Wunderground v.1.15,2013-03-01 12:35:00,
2013-03-01 07:40:00,31.6,21.5,29.91,North,355,0.0,1.0,66,0.00,,,0.00,Wunderground v.1.15,2013-03-01 12:40:00,
2013-03-01 07:45:00,31.7,22.0,29.91,North,10,0.0,1.0,67,0.00,,,0.00,Wunderground v.1.15,2013-03-01 12:45:00,
2013-03-01 07:50:00,31.7,22.0,29.91,West,273,0.0,2.0,67,0.00,,,0.00,Wunderground v.1.15,2013-03-01 12:50:00,
2013-03-01 07:55:00,31.9,22.2,29.91,WSW,252,0.0,2.0,67,0.00,,,0.00,Wunderground v.1.15,2013-03-01 12:55:00,
2013-03-01 08:05:00,32.0,22.3,29.91,East,101,0.0,1.0,67,0.00,,,0.00,Wunderground v.1.15,2013-03-01 13:05:00,
2013-03-01 08:10:00,32.0,22.3,29.92,East,100,0.0,1.0,67,0.00,,,0.00,Wunderground v.1.15,2013-03-01 13:10:00,
2013-03-01 08:15:00,32.1,22.0,29.92,ESE,121,0.0,1.0,66,0.00,,,0.00,Wunderground v.1.15,2013-03-01 13:15:00,
2013-03-01 08:20:00,32.2,22.5,29.92,SE,136,0.0,1.0,67,0.00,,,0.00,Wunderground v.1.15,2013-03-01 13:20:00,
2013-03-01 08:25:00,32.3,22.6,29.92,NW,315,0.0,1.0,67,0.00,,,0.00,Wunderground v.1.15,2013-03-01 13:25:00,
2013-03-01 08:30:00,32.4,22.7,29.92,SSE,161,0.0,2.0,67,0.00,,,0.00,Wunderground v.1.15,2013-03-01 13:30:00,
2013-03-01 08:40:00,32.7,22.9,29.92,WSW,252,0.0,1.0,67,0.00,,,0.00,Wunderground v.1.15,2013-03-01 13:40:00,
2013-03-01 08:45:00,32.8,23.4,29.92,SE,130,0.0,1.0,68,0.00,,,0.00,Wunderground v.1.15,2013-03-01 13:45:00,
2013-03-01 08:50:00,32.9,23.8,29.92,SE,143,1.0,1.0,69,0.00,,,0.00,Wunderground v.1.15,2013-03-01 13:50:00,
2013-03-01 08:55:00,33.1,23.7,29.92,WSW,246,1.0,1.0,68,0.00,,,0.00,Wunderground v.1.15,2013-03-01 13:55:00,
2013-03-01 09:00:00,33.4,24.3,29.92,WSW,251,0.0,0.0,69,0.00,,,0.00,Wunderground v.1.15,2013-03-01 14:00:00,
2013-03-01 09:10:00,33.7,24.6,29.92,SSW,204,1.0,1.0,69,0.00,,,0.00,Wunderground v.1.15,2013-03-01 14:10:00,
2013-03-01 09:15:00,33.9,25.1,29.92,SSE,148,1.0,1.0,70,0.00,,,0.00,Wunderground v.1.15,2013-03-01 14:15:00,
2013-03-01 09:20:00,33.9,25.5,29.93,SE,142,0.0,0.0,71,0.00,,,0.00,Wunderground v.1.15,2013-03-01 14:20:00,
2013-03-01 09:25:00,33.9,25.1,29.92,South,175,0.0,0.0,70,0.00,,,0.00,Wunderground v.1.15,2013-03-01 14:25:00,
2013-03-01 09:30:00,34.1,25.7,29.92,South,184,0.0,0.0,71,0.00,,,0.00,Wunderground v.1.15,2013-03-01 14:30:00,
2013-03-01 09:35:00,34.3,25.9,29.92,South,180,0.0,1.0,71,0.00,,,0.00,Wunderground v.1.15,2013-03-01 14:35:00,
2013-03-01 09:45:00,34.4,26.0,29.92,WSW,248,0.0,0.0,71,0.00,,,0.00,Wunderground v.1.15,2013-03-01 14:45:00,
2013-03-01 09:50:00,34.6,26.2,29.92,SW,232,0.0,0.0,71,0.00,,,0.00,Wunderground v.1.15,2013-03-01 14:50:00,
2013-03-01 09:55:00,34.6,26.2,29.92,SE,136,1.0,1.0,71,0.00,,,0.00,Wunderground v.1.15,2013-03-01 14:55:00,
2013-03-01 10:00:00,34.5,26.4,29.92,SSE,167,1.0,2.0,72,0.00,,,0.00,Wunderground v.1.15,2013-03-01 15:00:00,
2013-03-01 10:05:00,34.4,26.0,29.92,SE,144,1.0,2.0,71,0.00,,,0.00,Wunderground v.1.15,2013-03-01 15:05:00,
2013-03-01 10:15:00,34.6,26.2,29.92,WSW,256,1.0,2.0,71,0.00,,,0.00,Wunderground v.1.15,2013-03-01 15:15:00,
2013-03-01 10:20:00,34.7,26.6,29.92,East,86,1.0,1.0,72,0.00,,,0.00,Wunderground v.1.15,2013-03-01 15:20:00,
2013-03-01 10:25:00,34.8,26.7,29.92,SSW,209,1.0,2.0,72,0.00,,,0.00,Wunderground v.1.15,2013-03-01 15:25:00,
2013-03-01 10:30:00,34.9,26.4,29.92,WSW,255,0.0,2.0,71,0.00,,,0.00,Wunderground v.1.15,2013-03-01 15:30:00,
2013-03-01 10:35:00,35.1,26.6,29.92,East,86,0.0,2.0,71,0.00,,,0.00,Wunderground v.1.15,2013-03-01 15:35:00,
2013-03-01 10:40:00,35.2,26.7,29.92,East,96,0.0,2.0,71,0.00,,,0.00,Wunderground v.1.15,2013-03-01 15:40:00,
2013-03-01 10:45:00,35.4,27.3,29.92,SW,236,0.0,2.0,72,0.00,,,0.00,Wunderground v.1.15,2013-03-01 15:45:00,
2013-03-01 10:50:00,35.6,27.5,29.92,ESE,121,0.0,2.0,72,0.00,,,0.00,Wunderground v.1.15,2013-03-01 15:50:00,
2013-03-01 10:55:00,35.6,27.1,29.92,SSW,192,0.0,2.0,71,0.00,,,0.00,Wunderground v.1.15,2013-03-01 15:55:00,
2013-03-01 11:00:00,35.9,27.4,29.92,WSW,239,1.0,3.0,71,0.00,,,0.00,Wunderground v.1.15,2013-03-01 16:00:00,
2013-03-01 11:05:00,36.1,27.6,29.93,SW,230,1.0,3.0,71,0.00,,,0.00,Wunderground v.1.15,2013-03-01 16:05:00,
2013-03-01 11:10:00,36.3,27.8,29.93,SW,231,0.0,2.0,71,0.00,,,0.00,Wunderground v.1.15,2013-03-01 16:10:00,
2013-03-01 11:20:00,36.5,28.0,29.93,WSW,242,1.0,2.0,71,0.00,,,0.00,Wunderground v.1.15,2013-03-01 16:20:00,
2013-03-01 11:25:00,36.5,27.6,29.93,SSW,207,1.0,2.0,70,0.00,,,0.00,Wunderground v.1.15,2013-03-01 16:25:00,
2013-03-01 11:30:00,36.8,28.3,29.93,SW,217,1.0,2.0,71,0.00,,,0.00,Wunderground v.1.15,2013-03-01 16:30:00,
2013-03-01 11:35:00,36.9,28.0,29.93,ESE,113,0.0,2.0,70,0.00,,,0.00,Wunderground v.1.15,2013-03-01 16:35:00,
2013-03-01 11:40:00,37.0,28.1,29.93,NW,307,1.0,1.0,70,0.00,,,0.00,Wunderground v.1.15,2013-03-01 16:40:00,
2013-03-01 11:50:00,37.4,28.5,29.93,ENE,64,0.0,3.0,70,0.00,,,0.00,Wunderground v.1.15,2013-03-01 16:50:00,
2013-03-01 11:55:00,37.3,28.1,29.93,SSE,157,0.0,3.0,69,0.00,,,0.00,Wunderground v.1.15,2013-03-01 16:55:00,
2013-03-01 12:00:00,37.4,28.2,29.92,East,100,1.0,1.0,69,0.00,,,0.00,Wunderground v.1.15,2013-03-01 17:00:00,
2013-03-01 12:10:00,37.6,28.3,29.92,SSE,148,1.0,1.0,69,0.00,,,0.00,Wunderground v.1.15,2013-03-01 17:10:00,
2013-03-01 12:15:00,37.8,28.5,29.92,WSW,257,1.0,1.0,69,0.00,,,0.00,Wunderground v.1.15,2013-03-01 17:15:00,
2013-03-01 12:25:00,38.2,28.6,29.92,ESE,103,1.0,1.0,68,0.00,,,0.00,Wunderground v.1.15,2013-03-01 17:25:00,
2013-03-01 12:30:00,38.5,28.5,29.92,WNW,298,1.0,1.0,67,0.00,,,0.00,Wunderground v.1.15,2013-03-01 17:30:00,
2013-03-01 12:35:00,38.7,28.7,29.92,South,174,1.0,1.0,67,0.00,,,0.00,Wunderground v.1.15,2013-03-01 17:35:00,
2013-03-01 12:40:00,38.6,28.2,29.91,SE,127,1.0,1.0,66,0.00,,,0.00,Wunderground v.1.15,2013-03-01 17:40:00,
2013-03-01 12:45:00,38.7,28.7,29.91,NW,321,1.0,1.0,67,0.00,,,0.00,Wunderground v.1.15,2013-03-01 17:45:00,
2013-03-01 12:55:00,39.3,29.3,29.91,SSW,213,0.0,5.0,67,0.00,,,0.00,Wunderground v.1.15,2013-03-01 17:55:00,
2013-03-01 13:00:00,39.4,28.6,29.91,ENE,78,1.0,1.0,65,0.00,,,0.00,Wunderground v.1.15,2013-03-01 18:00:00,
2013-03-01 13:05:00,39.3,28.9,29.91,ENE,78,1.0,3.0,66,0.00,,,0.00,Wunderground v.1.15,2013-03-01 18:05:00,
2013-03-01 13:10:00,39.7,29.3,29.91,NE,55,1.0,3.0,66,0.00,,,0.00,Wunderground v.1.15,2013-03-01 18:10:00,
2013-03-01 13:15:00,40.0,29.6,29.90,NE,51,0.0,3.0,66,0.00,,,0.00,Wunderground v.1.15,2013-03-01 18:15:00,
2013-03-01 13:20:00,40.1,28.9,29.90,NW,317,0.0,3.0,64,0.00,,,0.00,Wunderground v.1.15,2013-03-01 18:20:00,
2013-03-01 13:30:00,40.0,28.8,29.89,ESE,108,1.0,6.0,64,0.00,,,0.00,Wunderground v.1.15,2013-03-01 18:30:00,
2013-03-01 13:35:00,39.4,28.6,29.89,WSW,246,2.0,6.0,65,0.00,,,0.00,Wunderground v.1.15,2013-03-01 18:35:00,
2013-03-01 13:40:00,39.7,29.6,29.89,SW,217,1.0,3.0,67,0.00,,,0.00,Wunderground v.1.15,2013-03-01 18:40:00,
2013-03-01 13:45:00,40.2,29.7,29.89,SW,229,1.0,3.0,66,0.00,,,0.00,Wunderground v.1.15,2013-03-01 18:45:00,
2013-03-01 13:50:00,40.5,29.3,29.88,NNE,30,1.0,3.0,64,0.00,,,0.00,Wunderground v.1.15,2013-03-01 18:50:00,
2013-03-01 14:00:00,40.0,29.2,29.88,East,97,1.0,1.0,65,0.00,,,0.00,Wunderground v.1.15,2013-03-01 19:00:00,
2013-03-01 14:05:00,40.0,29.6,29.88,East,83,1.0,3.0,66,0.00,,,0.00,Wunderground v.1.15,2013-03-01 19:05:00,
2013-03-01 14:10:00,40.0,28.8,29.88,NNW,344,1.0,3.0,64,0.00,,,0.00,Wunderground v.1.15,2013-03-01 19:10:00,
2013-03-01 14:15:00,39.5,28.7,29.88,ENE,59,2.0,3.0,65,0.00,,,0.00,Wunderground v.1.15,2013-03-01 19:15:00,
2013-03-01 14:20:00,39.5,28.7,29.88,WNW,290,1.0,1.0,65,0.00,,,0.00,Wunderground v.1.15,2013-03-01 19:20:00,
2013-03-01 14:25:00,39.7,28.9,29.88,NW,323,1.0,3.0,65,0.00,,,0.00,Wunderground v.1.15,2013-03-01 19:25:00,
2013-03-01 14:35:00,39.3,28.5,29.88,SE,140,2.0,3.0,65,0.00,,,0.00,Wunderground v.1.15,2013-03-01 19:35:00,
2013-03-01 14:40:00,39.1,28.7,29.88,ENE,77,2.0,2.0,66,0.00,,,0.00,Wunderground v.1.15,2013-03-01 19:40:00,
2013-03-01 14:45:00,39.1,28.7,29.88,NE,34,1.0,3.0,66,0.00,,,0.00,Wunderground v.1.15,2013-03-01 19:45:00,
2013-03-01 14:50:00,39.2,28.4,29.88,East,82,1.0,3.0,65,0.00,,,0.00,Wunderground v.1.15,2013-03-01 19:50:00,
2013-03-01 14:55:00,39.1,27.9,29.88,ENE,63,1.0,3.0,64,0.00,,,0.00,Wunderground v.1.15,2013-03-01 19:55:00,
2013-03-01 15:00:00,38.8,28.4,29.88,WSW,240,2.0,2.0,66,0.00,,,0.00,Wunderground v.1.15,2013-03-01 20:00:00,
2013-03-01 15:10:00,38.7,28.3,29.88,West,259,1.0,1.0,66,0.00,,,0.00,Wunderground v.1.15,2013-03-01 20:10:00,
2013-03-01 15:15:00,38.7,28.3,29.88,NW,318,1.0,1.0,66,0.00,,,0.00,Wunderground v.1.15,2013-03-01 20:15:00,
2013-03-01 15:20:00,38.6,27.8,29.88,SSW,192,1.0,1.0,65,0.00,,,0.00,Wunderground v.1.15,2013-03-01 20:20:00,
2013-03-01 15:25:00,38.5,27.7,29.88,NE,35,1.0,1.0,65,0.00,,,0.00,Wunderground v.1.15,2013-03-01 20:25:00,
2013-03-01 15:30:00,38.4,28.0,29.89,East,82,1.0,1.0,66,0.00,,,0.00,Wunderground v.1.15,2013-03-01 20:30:00,
2013-03-01 15:35:00,38.4,28.4,29.89,ESE,106,1.0,1.0,67,0.00,,,0.00,Wunderground v.1.15,2013-03-01 20:35:00,
2013-03-01 15:40:00,38.0,27.6,29.88,East,82,2.0,2.0,66,0.00,,,0.00,Wunderground v.1.15,2013-03-01 20:40:00,
2013-03-01 15:45:00,37.9,27.9,29.88,East,80,2.0,2.0,67,0.00,,,0.00,Wunderground v.1.15,2013-03-01 20:45:00,
2013-03-01 15:50:00,38.0,28.0,29.88,NNE,22,1.0,1.0,67,0.00,,,0.00,Wunderground v.1.15,2013-03-01 20:50:00,
2013-03-01 15:55:00,38.0,28.0,29.88,ESE,103,1.0,2.0,67,0.00,,,0.00,Wunderground v.1.15,2013-03-01 20:55:00,
2013-03-01 16:00:00,38.1,28.1,29.88,SE,127,1.0,1.0,67,0.00,,,0.00,Wunderground v.1.15,2013-03-01 21:00:00,
2013-03-01 16:10:00,38.2,27.8,29.87,East,83,1.0,1.0,66,0.00,,,0.00,Wunderground v.1.15,2013-03-01 21:10:00,
2013-03-01 16:15:00,38.2,27.8,29.88,NW,315,1.0,7.0,66,0.00,,,0.00,Wunderground v.1.15,2013-03-01 21:15:00,
2013-03-01 16:20:00,38.3,27.9,29.88,South,181,1.0,7.0,66,0.00,,,0.00,Wunderground v.1.15,2013-03-01 21:20:00,
2013-03-01 16:25:00,38.3,27.9,29.88,WSW,251,1.0,7.0,66,0.00,,,0.00,Wunderground v.1.15,2013-03-01 21:25:00,
2013-03-01 16:30:00,38.3,27.6,29.88,East,95,0.0,7.0,65,0.00,,,0.00,Wunderground v.1.15,2013-03-01 21:30:00,
2013-03-01 16:40:00,38.2,27.5,29.88,West,280,1.0,7.0,65,0.00,,,0.00,Wunderground v.1.15,2013-03-01 21:40:00,
2013-03-01 16:45:00,38.1,27.4,29.88,East,89,1.0,7.0,65,0.00,,,0.00,Wunderground v.1.15,2013-03-01 21:45:00,
2013-03-01 16:50:00,38.0,27.3,29.88,East,82,1.0,7.0,65,0.00,,,0.00,Wunderground v.1.15,2013-03-01 21:50:00,
2013-03-01 16:55:00,37.9,27.5,29.88,SSW,209,1.0,7.0,66,0.00,,,0.00,Wunderground v.1.15,2013-03-01 21:55:00,
2013-03-01 17:00:00,37.8,27.8,29.88,SSW,210,1.0,7.0,67,0.00,,,0.00,Wunderground v.1.15,2013-03-01 22:00:00,
2013-03-01 17:05:00,37.9,27.9,29.89,South,172,0.0,7.0,67,0.00,,,0.00,Wunderground v.1.15,2013-03-01 22:05:00,
2013-03-01 17:15:00,37.8,27.5,29.89,ESE,107,1.0,7.0,66,0.00,,,0.00,Wunderground v.1.15,2013-03-01 22:15:00,
2013-03-01 17:20:00,37.8,27.8,29.89,SW,221,1.0,1.0,67,0.00,,,0.00,Wunderground v.1.15,2013-03-01 22:20:00,
2013-03-01 17:25:00,37.7,27.7,29.89,SW,230,0.0,7.0,67,0.00,,,0.00,Wunderground v.1.15,2013-03-01 22:25:00,
2013-03-01 17:30:00,37.6,27.3,29.90,ESE,106,1.0,7.0,66,0.00,,,0.00,Wunderground v.1.15,2013-03-01 22:30:00,
2013-03-01 17:35:00,37.5,27.5,29.89,SE,136,1.0,7.0,67,0.00,,,0.00,Wunderground v.1.15,2013-03-01 22:35:00,
2013-03-01 17:45:00,37.4,27.4,29.90,SE,144,0.0,7.0,67,0.00,,,0.00,Wunderground v.1.15,2013-03-01 22:45:00,
2013-03-01 17:50:00,37.3,27.3,29.90,SSE,160,0.0,7.0,67,0.00,,,0.00,Wunderground v.1.15,2013-03-01 22:50:00,
2013-03-01 17:55:00,37.2,27.2,29.90,South,180,0.0,7.0,67,0.00,,,0.00,Wunderground v.1.15,2013-03-01 22:55:00,
2013-03-01 18:00:00,37.2,27.2,29.90,North,5,0.0,0.0,67,0.00,,,0.00,Wunderground v.1.15,2013-03-01 23:00:00,
2013-03-01 18:10:00,37.0,27.1,29.90,ESE,113,0.0,2.0,67,0.00,,,0.00,Wunderground v.1.15,2013-03-01 23:10:00,
2013-03-01 18:20:00,36.7,27.1,29.90,East,100,1.0,1.0,68,0.00,,,0.00,Wunderground v.1.15,2013-03-01 23:20:00,
2013-03-01 18:25:00,36.6,27.4,29.90,East,100,1.0,1.0,69,0.00,,,0.00,Wunderground v.1.15,2013-03-01 23:25:00,
2013-03-01 18:30:00,36.6,27.4,29.90,East,92,0.0,0.0,69,0.00,,,0.00,Wunderground v.1.15,2013-03-01 23:30:00,
2013-03-01 18:35:00,36.5,27.3,29.90,SSE,154,1.0,1.0,69,0.00,,,0.00,Wunderground v.1.15,2013-03-01 23:35:00,
2013-03-01 18:40:00,36.4,27.2,29.90,ESE,121,1.0,1.0,69,0.00,,,0.00,Wunderground v.1.15,2013-03-01 23:40:00,
2013-03-01 18:50:00,36.3,27.4,29.90,ESE,115,1.0,1.0,70,0.00,,,0.00,Wunderground v.1.15,2013-03-01 23:50:00,
2013-03-01 18:55:00,36.2,27.4,29.90,SE,144,1.0,1.0,70,0.00,,,0.00,Wunderground v.1.15,2013-03-01 23:55:00,
2013-03-01 19:00:00,36.1,27.3,29.90,ENE,63,1.0,2.0,70,0.00,,,0.00,Wunderground v.1.15,2013-03-02 00:00:00,
2013-03-01 19:05:00,36.1,27.3,29.91,North,5,1.0,2.0,70,0.00,,,0.00,Wunderground v.1.15,2013-03-02 00:05:00,
2013-03-01 19:10:00,36.0,27.2,29.91,NE,38,1.0,1.0,70,0.00,,,0.00,Wunderground v.1.15,2013-03-02 00:10:00,
2013-03-01 19:15:00,36.0,27.2,29.90,East,86,1.0,4.0,70,0.00,,,0.00,Wunderground v.1.15,2013-03-02 00:15:00,
2013-03-01 19:20:00,35.9,27.1,29.90,NE,42,2.0,3.0,70,0.00,,,0.00,Wunderground v.1.15,2013-03-02 00:20:00,
2013-03-01 19:25:00,35.8,27.0,29.90,ESE,105,2.0,3.0,70,0.00,,,0.00,Wunderground v.1.15,2013-03-02 00:25:00,
2013-03-01 19:30:00,35.7,26.9,29.90,ENE,74,2.0,2.0,70,0.00,,,0.00,Wunderground v.1.15,2013-03-02 00:30:00,
2013-03-01 19:35:00,35.7,26.9,29.90,NE,51,2.0,4.0,70,0.00,,,0.00,Wunderground v.1.15,2013-03-02 00:35:00,
2013-03-01 19:40:00,35.6,26.8,29.91,East,85,2.0,2.0,70,0.00,,,0.00,Wunderground v.1.15,2013-03-02 00:40:00,
2013-03-01 19:45:00,35.5,26.7,29.91,ENE,59,1.0,2.0,70,0.00,,,0.00,Wunderground v.1.15,2013-03-02 00:45:00,
2013-03-01 19:55:00,35.4,26.6,29.91,South,180,1.0,2.0,70,0.00,,,0.00,Wunderground v.1.15,2013-03-02 00:55:00,
2013-03-01 20:00:00,35.4,26.6,29.91,NE,34,1.0,1.0,70,0.00,,,0.00,Wunderground v.1.15,2013-03-02 01:00:00,
2013-03-01 20:05:00,35.4,26.9,29.91,East,101,1.0,2.0,71,0.00,,,0.00,Wunderground v.1.15,2013-03-02 01:05:00,
2013-03-01 20:10:00,35.4,26.9,29.91,South,178,1.0,1.0,71,0.00,,,0.00,Wunderground v.1.15,2013-03-02 01:10:00,
2013-03-01 20:15:00,35.3,26.8,29.91,SSE,168,1.0,2.0,71,0.00,,,0.00,Wunderground v.1.15,2013-03-02 01:15:00,
2013-03-01 20:20:00,35.3,26.8,29.91,West,270,0.0,2.0,71,0.00,,,0.00,Wunderground v.1.15,2013-03-02 01:20:00,
2013-03-01 20:30:00,35.2,26.7,29.91,WSW,244,1.0,1.0,71,0.00,,,0.00,Wunderground v.1.15,2013-03-02 01:30:00,
2013-03-01 20:35:00,35.2,26.4,29.91,NNW,348,1.0,2.0,70,0.00,,,0.00,Wunderground v.1.15,2013-03-02 01:35:00,
2013-03-01 20:40:00,35.2,26.7,29.91,SSW,201,1.0,1.0,71,0.00,,,0.00,Wunderground v.1.15,2013-03-02 01:40:00,
2013-03-01 20:45:00,35.1,26.6,29.91,SW,234,1.0,2.0,71,0.00,,,0.00,Wunderground v.1.15,2013-03-02 01:45:00,
2013-03-01 20:50:00,35.1,26.6,29.91,South,178,0.0,4.0,71,0.00,,,0.00,Wunderground v.1.15,2013-03-02 01:50:00,
2013-03-01 20:55:00,35.1,26.3,29.91,WSW,240,0.0,4.0,70,0.00,,,0.00,Wunderground v.1.15,2013-03-02 01:55:00,
2013-03-01 21:00:00,35.1,26.6,29.91,SSE,166,1.0,1.0,71,0.00,,,0.00,Wunderground v.1.15,2013-03-02 02:00:00,
2013-03-01 21:10:00,35.1,26.6,29.91,SE,143,1.0,2.0,71,0.00,,,0.00,Wunderground v.1.15,2013-03-02 02:10:00,
2013-03-01 21:15:00,35.0,26.5,29.91,SE,141,0.0,2.0,71,0.00,,,0.00,Wunderground v.1.15,2013-03-02 02:15:00,
2013-03-01 21:20:00,35.0,26.5,29.91,SE,141,0.0,0.0,71,0.00,,,0.00,Wunderground v.1.15,2013-03-02 02:20:00,
2013-03-01 21:25:00,35.0,26.5,29.91,SE,141,0.0,0.0,71,0.00,,,0.00,Wunderground v.1.15,2013-03-02 02:25:00,
2013-03-01 21:35:00,34.8,26.7,29.91,SE,141,0.0,0.0,72,0.00,,,0.00,Wunderground v.1.15,2013-03-02 02:35:00,
2013-03-01 21:40:00,34.8,26.4,29.92,South,175,0.0,1.0,71,0.00,,,0.00,Wunderground v.1.15,2013-03-02 02:40:00,
2013-03-01 21:45:00,34.9,26.4,29.92,South,175,0.0,1.0,71,0.00,,,0.00,Wunderground v.1.15,2013-03-02 02:45:00,
2013-03-01 21:50:00,35.0,26.5,29.92,South,175,0.0,0.0,71,0.00,,,0.00,Wunderground v.1.15,2013-03-02 02:50:00,
2013-03-01 21:55:00,35.0,26.5,29.92,South,175,0.0,0.0,71,0.00,,,0.00,Wunderground v.1.15,2013-03-02 02:55:00,
2013-03-01 22:05:00,35.0,26.5,29.92,ESE,113,1.0,5.0,71,0.00,,,0.00,Wunderground v.1.15,2013-03-02 03:05:00,
2013-03-01 22:10:00,35.0,26.5,29.92,SE,134,1.0,1.0,71,0.00,,,0.00,Wunderground v.1.15,2013-03-02 03:10:00,
2013-03-01 22:15:00,35.0,26.5,29.92,SE,134,0.0,5.0,71,0.00,,,0.00,Wunderground v.1.15,2013-03-02 03:15:00,
2013-03-01 22:20:00,35.1,26.6,29.92,West,280,0.0,5.0,71,0.00,,,0.00,Wunderground v.1.15,2013-03-02 03:20:00,
2013-03-01 22:25:00,35.1,26.6,29.91,East,92,1.0,5.0,71,0.00,,,0.00,Wunderground v.1.15,2013-03-02 03:25:00,
2013-03-01 22:30:00,35.1,26.6,29.92,SSW,213,1.0,5.0,71,0.00,,,0.00,Wunderground v.1.15,2013-03-02 03:30:00,
2013-03-01 22:35:00,35.0,26.5,29.92,South,189,0.0,5.0,71,0.00,,,0.00,Wunderground v.1.15,2013-03-02 03:35:00,
2013-03-01 22:45:00,35.0,26.5,29.92,SSW,196,0.0,5.0,71,0.00,,,0.00,Wunderground v.1.15,2013-03-02 03:45:00,
2013-03-01 22:50:00,34.9,26.4,29.91,SSE,165,0.0,5.0,71,0.00,,,0.00,Wunderground v.1.15,2013-03-02 03:50:00,
2013-03-01 22:55:00,34.8,26.4,29.91,WSW,242,1.0,5.0,71,0.00,,,0.00,Wunderground v.1.15,2013-03-02 03:55:00,
2013-03-01 23:00:00,34.8,26.4,29.91,ESE,104,1.0,5.0,71,0.00,,,0.00,Wunderground v.1.15,2013-03-02 04:00:00,
2013-03-01 23:05:00,34.7,26.3,29.91,ESE,111,1.0,5.0,71,0.00,,,0.00,Wunderground v.1.15,2013-03-02 04:05:00,
2013-03-01 23:10:00,34.6,26.2,29.91,South,187,1.0,1.0,71,0.00,,,0.00,Wunderground v.1.15,2013-03-02 04:10:00,
2013-03-01 23:15:00,34.6,26.2,29.90,ENE,76,1.0,5.0,71,0.00,,,0.00,Wunderground v.1.15,2013-03-02 04:15:00,
2013-03-01 23:20:00,34.5,26.1,29.89,SE,139,1.0,5.0,71,0.00,,,0.00,Wunderground v.1.15,2013-03-02 04:20:00,
2013-03-01 23:25:00,34.4,26.0,29.89,ENE,76,1.0,5.0,71,0.00,,,0.00,Wunderground v.1.15,2013-03-02 04:25:00,
2013-03-01 23:30:00,34.4,26.0,29.89,SE,128,2.0,2.0,71,0.00,,,0.00,Wunderground v.1.15,2013-03-02 04:30:00,
2013-03-01 23:40:00,34.4,26.0,29.90,WSW,258,1.0,5.0,71,0.00,,,0.00,Wunderground v.1.15,2013-03-02 04:40:00,
2013-03-01 23:45:00,34.4,26.0,29.89,SSW,210,1.0,5.0,71,0.00,,,0.00,Wunderground v.1.15,2013-03-02 04:45:00,
2013-03-01 23:50:00,34.3,25.9,29.90,WSW,244,1.0,1.0,71,0.00,,,0.00,Wunderground v.1.15,2013-03-02 04:50:00,
2013-03-01 23:55:00,34.3,25.9,29.90,SW,217,0.0,5.0,71,0.00,,,0.00,Wunderground v.1.15,2013-03-02 04:55:00,